Weather History for Athens, OH

Change the Weather History Date:

Thursday, August 8, 2013

  Actual Average (KPKB) Record (KPKB)
Temperature  
Mean Temperature 76 °F 74 °F  
Max Temperature 82 °F 85 °F 97 °F (1931)
Min Temperature 69 °F 64 °F 48 °F (1989)
Degree Days  
Heating Degree Days 0 0  
Month to date heating degree days 0  
Cooling Degree Days 10 9  
Month to date cooling degree days 72  
Growing Degree Days 26 (Base 50)    
Moisture  
Dew Point 71 °F    
Average Humidity 87    
Maximum Humidity 95    
Minimum Humidity 68    
Precipitation  
Precipitation 0.00 in 0.12 in 1.34 in (2003)
Month to date precipitation 0.97  
Sea Level Pressure  
Sea Level Pressure 29.95 in    
Wind  
Wind Speed 2 mph (SSW)    
Max Wind Speed 12 mph    
Max Gust Speed -    
Visibility 10 miles    
Events Rain    
T = Trace of Precipitation, MM = Missing Value Source: NWS Daily Summary

Daily Weather History Graph

Daily Weather History Graph

Search for Another Location

Airport:

Trip Planner

Search our weather history database for the weather conditions in past years. The results will help you decide how hot, cold, wet, or windy it might be!

Date:

Astronomy

Aug. 08, 2013 Rise Set
Actual Time 6:35 AM EDT 8:32 PM EDT
Civil Twilight 6:06 AM EDT 9:01 PM EDT
Nautical Twilight 5:30 AM EDT 9:37 PM EDT
Astronomical Twilight 4:52 AM EDT 10:15 PM EDT
Moon 8:20 AM EDT (8/8) 9:11 PM EDT (8/8)
Length of Visible Light 14h 55m
Length of Day
13h 56m
Waxing Crescent, 3% of the Moon is Illuminated
Aug 8
Waxing Crescent
Aug 14
First Quarter
Aug 20
Full
Aug 28
Last Quarter
Sep 5
New

Hourly Weather History & Observations

Time (EDT) Temp. Heat Index Dew Point Humidity Pressure Visibility Wind Dir Wind Speed Gust Speed Precip Events Conditions
12:15 AM 72.9 °F - 70.3 °F 92% 29.97 in 10.0 mi Calm Calm - N/A   Scattered Clouds
12:35 AM 72.5 °F - 70.0 °F 92% 29.97 in 10.0 mi Calm Calm - N/A   Mostly Cloudy
12:55 AM 71.6 °F - 69.3 °F 92% 29.96 in 10.0 mi Calm Calm - N/A   Mostly Cloudy
1:15 AM 72.0 °F - 70.0 °F 93% 29.96 in 10.0 mi Calm Calm - N/A   Overcast
1:35 AM 71.6 °F - 69.8 °F 94% 29.96 in 10.0 mi Calm Calm - N/A   Mostly Cloudy
1:55 AM 72.5 °F - 70.2 °F 92% 29.96 in 10.0 mi South 3.5 mph - N/A   Mostly Cloudy
2:15 AM 72.5 °F - 69.8 °F 91% 29.96 in 10.0 mi Calm Calm - N/A   Mostly Cloudy
2:35 AM 71.8 °F - 69.3 °F 92% 29.95 in 10.0 mi SSE 3.5 mph - N/A   Scattered Clouds
2:55 AM 71.2 °F - 69.1 °F 93% 29.95 in 10.0 mi Calm Calm - N/A   Clear
3:15 AM 71.4 °F - 69.3 °F 93% 29.95 in 10.0 mi South 3.5 mph - N/A   Clear
3:35 AM 71.2 °F - 69.3 °F 93% 29.95 in 10.0 mi Calm Calm - N/A   Clear
3:55 AM 71.4 °F - 68.9 °F 92% 29.95 in 10.0 mi Calm Calm - N/A   Scattered Clouds
4:15 AM 71.1 °F - 68.9 °F 93% 29.95 in 10.0 mi Calm Calm - N/A   Clear
4:35 AM 70.2 °F - 68.0 °F 93% 29.95 in 10.0 mi Calm Calm - N/A   Clear
4:55 AM 69.8 °F - 68.0 °F 94% 29.95 in 7.0 mi Calm Calm - N/A   Clear
5:15 AM 69.6 °F - 68.0 °F 95% 29.95 in 7.0 mi Calm Calm - N/A   Mostly Cloudy
5:35 AM 70.0 °F - 68.4 °F 95% 29.95 in 10.0 mi Calm Calm - N/A   Mostly Cloudy
5:55 AM 69.3 °F - 67.6 °F 95% 29.95 in 7.0 mi Calm Calm - N/A   Scattered Clouds
6:15 AM 69.1 °F - 67.5 °F 95% 29.95 in 7.0 mi Calm Calm - N/A   Mostly Cloudy
6:35 AM 70.0 °F - 68.5 °F 95% 29.95 in 10.0 mi Calm Calm - N/A   Scattered Clouds
6:55 AM 70.3 °F - 68.9 °F 95% 29.95 in 7.0 mi South 3.5 mph - N/A   Mostly Cloudy
7:15 AM 70.5 °F - 68.9 °F 95% 29.95 in 7.0 mi South 3.5 mph - N/A   Overcast
7:35 AM 70.7 °F - 69.1 °F 95% 29.96 in 7.0 mi Calm Calm - N/A   Overcast
7:55 AM 71.2 °F - 69.8 °F 95% 29.97 in 10.0 mi South 3.5 mph - N/A   Overcast
8:15 AM 71.6 °F - 69.4 °F 93% 29.97 in 10.0 mi South 4.6 mph - N/A   Overcast
8:35 AM 71.6 °F - 69.3 °F 92% 29.98 in 10.0 mi SSW 3.5 mph - N/A Rain Rain
8:55 AM 71.8 °F - 69.8 °F 93% 29.98 in 10.0 mi South 3.5 mph - N/A   Overcast
9:15 AM 72.9 °F - 70.7 °F 93% 29.97 in 10.0 mi SSW 4.6 mph - N/A   Overcast
9:35 AM 73.8 °F - 70.7 °F 90% 29.97 in 10.0 mi South 5.8 mph - N/A   Overcast
9:55 AM 74.7 °F - 70.9 °F 88% 29.97 in 10.0 mi South 3.5 mph - N/A   Overcast
10:15 AM 76.1 °F - 71.2 °F 85% 29.97 in 10.0 mi SSW 3.5 mph - N/A   Overcast
10:35 AM 76.1 °F - 70.7 °F 83% 29.98 in 10.0 mi SSW 3.5 mph - N/A   Overcast
10:55 AM 76.1 °F - 70.7 °F 83% 29.98 in 10.0 mi SW 4.6 mph - N/A   Overcast
11:15 AM 77.9 °F - 71.1 °F 79% 29.99 in 10.0 mi WSW 5.8 mph - N/A   Overcast
11:35 AM 78.8 °F - 72.0 °F 79% 29.99 in 10.0 mi WSW 6.9 mph - N/A   Mostly Cloudy
11:55 AM 78.8 °F - 70.7 °F 76% 29.99 in 10.0 mi SW 5.8 mph - N/A   Mostly Cloudy
12:15 PM 79.0 °F - 71.1 °F 77% 29.99 in 10.0 mi SW 4.6 mph - N/A   Mostly Cloudy
12:35 PM 77.5 °F - 70.9 °F 80% 29.99 in 10.0 mi WSW 11.5 mph - N/A   Mostly Cloudy
12:55 PM 77.4 °F - 71.6 °F 82% 29.98 in 10.0 mi SW 8.1 mph - N/A Rain Light Rain
1:15 PM 77.2 °F - 73.0 °F 87% 29.97 in 7.0 mi West 4.6 mph - N/A Rain Light Rain
1:35 PM 77.7 °F - 72.3 °F 83% 29.97 in 10.0 mi WSW 6.9 mph - N/A   Mostly Cloudy
1:55 PM 77.4 °F - 71.2 °F 81% 29.97 in 10.0 mi SW 4.6 mph - N/A   Mostly Cloudy
2:15 PM 78.4 °F - 71.6 °F 79% 29.97 in 10.0 mi SW 5.8 mph - N/A   Mostly Cloudy
2:35 PM 78.1 °F - 70.5 °F 77% 29.96 in 10.0 mi Calm Calm - N/A   Mostly Cloudy
2:55 PM 79.3 °F - 70.9 °F 75% 29.95 in 10.0 mi South 3.5 mph - N/A   Mostly Cloudy
3:15 PM 80.8 °F 84.9 °F 71.8 °F 74% 29.95 in 10.0 mi South 3.5 mph - N/A   Mostly Cloudy
3:35 PM 82.2 °F 86.4 °F 70.9 °F 68% 29.94 in 10.0 mi SSE 6.9 mph - N/A   Scattered Clouds
3:55 PM 81.0 °F 84.7 °F 70.7 °F 71% 29.94 in 10.0 mi South 5.8 mph - N/A   Scattered Clouds
4:15 PM 80.2 °F 83.9 °F 71.4 °F 74% 29.93 in 10.0 mi Calm Calm - N/A   Scattered Clouds
4:35 PM 80.1 °F 84.0 °F 72.1 °F 77% 29.94 in 10.0 mi SW 4.6 mph - N/A Rain Light Rain
4:55 PM 77.0 °F - 73.8 °F 90% 29.93 in 4.0 mi Calm Calm - N/A Rain Rain
5:15 PM 77.7 °F - 73.2 °F 86% 29.94 in 7.0 mi SSE 3.5 mph - N/A   Scattered Clouds
5:35 PM 78.3 °F - 72.5 °F 82% 29.94 in 10.0 mi South 5.8 mph - N/A   Scattered Clouds
5:55 PM 78.6 °F - 72.3 °F 81% 29.93 in 10.0 mi South 9.2 mph - N/A   Scattered Clouds
6:15 PM 78.3 °F - 71.4 °F 79% 29.94 in 10.0 mi SSW 4.6 mph - N/A   Clear
6:35 PM 78.1 °F - 71.2 °F 79% 29.94 in 10.0 mi South 3.5 mph - N/A   Clear
6:55 PM 77.4 °F - 71.1 °F 81% 29.94 in 10.0 mi SSW 3.5 mph - N/A   Clear
7:15 PM 77.0 °F - 71.1 °F 82% 29.94 in 10.0 mi Calm Calm - N/A   Clear
7:35 PM 76.3 °F - 71.6 °F 85% 29.94 in 10.0 mi Calm Calm - N/A   Clear
7:55 PM 76.1 °F - 71.8 °F 86% 29.94 in 10.0 mi Calm Calm - N/A Rain Light Rain
8:15 PM 75.4 °F - 71.8 °F 89% 29.94 in 10.0 mi Calm Calm - N/A   Clear
8:35 PM 75.0 °F - 71.6 °F 89% 29.93 in 10.0 mi Calm Calm - N/A   Mostly Cloudy
8:55 PM 74.8 °F - 71.6 °F 90% 29.93 in 10.0 mi Calm Calm - N/A   Overcast
9:15 PM 74.5 °F - 71.1 °F 89% 29.93 in 5.0 mi Calm Calm - N/A   Scattered Clouds
9:35 PM 74.1 °F - 71.6 °F 92% 29.94 in 10.0 mi Calm Calm - N/A   Mostly Cloudy
9:55 PM 74.3 °F - 71.6 °F 91% 29.94 in 10.0 mi Calm Calm - N/A   Overcast
10:15 PM 74.3 °F - 71.6 °F 91% 29.94 in 10.0 mi Calm Calm - N/A   Overcast
10:35 PM 73.9 °F - 71.6 °F 92% 29.94 in 10.0 mi South 4.6 mph - N/A   Mostly Cloudy
10:55 PM 73.8 °F - 71.2 °F 92% 29.94 in 10.0 mi South 4.6 mph - N/A   Scattered Clouds
11:15 PM 73.6 °F - 71.1 °F 92% 29.95 in 10.0 mi South 4.6 mph - N/A   Scattered Clouds
11:35 PM 73.4 °F - 70.9 °F 92% 29.95 in 10.0 mi SSW 3.5 mph - N/A   Mostly Cloudy
11:55 PM 73.0 °F - 70.7 °F 92% 29.94 in 10.0 mi South 4.6 mph - N/A   Scattered Clouds